Home   Weather   Las Palmas   Past weeks

Flag for Spain Past Weather in Las Palmas, Canary Islands, Spain — Yesterday and Last 2 Weeks

Now
64 °F

Passing clouds.


Feels Like: 64 °F
Forecast: N/A
Wind: 12 mph from Northwest

Location: Las Palmas De Gran Canaria / Gando

Current Time: Feb 21, 2017 at 9:41:44 pm

Latest Report: Feb 21, 2017 at 9:00 pm


Visibility: N/A

Pressure: 30.04 "Hg

Humidity: 68%

Dew Point: 54 °F

Location of Las PalmasLocation

Past Weather in Las Palmas — Graph

°F

Las Palmas Temperature Yesterday

Maximum temperature yesterday: 72 °F (at 1:30 pm)
Minimum temperature yesterday: 59 °F (at 3:30 am)
Average temperature yesterday: 64 °F

High & Low Weather Summary for the Past Weeks

 TemperatureHumidityPressure
High81 °F (Feb 17, 1:30 pm)94% (Feb 10, 9:30 am)30.33 "Hg (Feb 10, 9:30 am)
Low55 °F (Feb 11, 5:00 am)21% (Feb 17, 12:30 pm)29.50 "Hg (Feb 12, 6:00 am)
Average65 °F62%30.06 "Hg
* Reported Feb 6 8:00 pm — Feb 21 8:30 pm, Las Palmas, Weather by CustomWeather, © 2017

Note: Actual official high and low records may vary slightly from our data, if they occured in-between our weather recording intervals... More about our weather records

Advertising

Las Palmas Weather History for the Previous 24 Hours

Scroll right to see more
 ConditionsComfort  
Time TempWeatherWind HumidityBarometerVisibility
8:30 pm
Tue, Feb 21
63 °FPassing clouds.13 mph73%30.04 "HgN/A
8:00 pm64 °FLight rain. Passing clouds.10 mph68%30.01 "HgN/A
7:30 pm64 °FPassing clouds.13 mph64%30.01 "HgN/A
7:00 pm64 °FPassing clouds.13 mph64%30.01 "HgN/A
6:30 pm64 °FScattered clouds.14 mph64%30.01 "HgN/A
6:00 pm66 °FScattered clouds.14 mph60%30.01 "HgN/A
5:30 pm66 °FScattered clouds.20 mph60%29.98 "HgN/A
5:00 pm68 °FScattered clouds.17 mph60%29.98 "HgN/A
4:30 pm64 °FScattered clouds.18 mph73%29.98 "HgN/A
4:21 pm64 °FPartly sunny.21 mph73%29.98 "HgN/A
4:00 pm64 °FRain. Partly sunny.21 mph73%30.01 "Hg5 mi
3:30 pm70 °FScattered clouds.18 mph50%29.98 "HgN/A
3:00 pm70 °FPassing clouds.22 mph46%29.98 "HgN/A
2:30 pm70 °FPassing clouds.22 mph50%30.01 "HgN/A
2:00 pm68 °FPassing clouds.22 mph53%30.01 "HgN/A
1:30 pm68 °FScattered clouds.17 mph53%30.01 "HgN/A
1:00 pm70 °FScattered clouds.18 mph50%30.01 "HgN/A
12:30 pm68 °FScattered clouds.18 mph56%30.04 "HgN/A
12:00 pm70 °FLight rain. Broken clouds.25 mph46%30.04 "HgN/A
11:30 am68 °FScattered clouds.23 mph46%30.04 "HgN/A
11:00 am68 °FScattered clouds.21 mph49%30.04 "HgN/A
10:30 am68 °FPassing clouds.22 mph46%30.04 "HgN/A
10:00 am66 °FPassing clouds.20 mph52%30.04 "HgN/A
9:30 am64 °FPassing clouds.22 mph56%30.01 "HgN/A
9:00 am64 °FPassing clouds.17 mph52%30.01 "HgN/A
8:30 am63 °FPassing clouds.14 mph56%30.01 "HgN/A
8:00 am61 °FPassing clouds.13 mph63%30.01 "HgN/A
7:30 am63 °FPassing clouds.13 mph59%30.01 "HgN/A
7:00 am61 °FPassing clouds.13 mph63%30.01 "HgN/A
6:30 am61 °FPassing clouds.10 mph63%30.01 "HgN/A
6:00 am63 °FPassing clouds.9 mph64%30.01 "HgN/A
5:30 am63 °FPassing clouds.8 mph68%30.01 "HgN/A
5:00 am63 °FPassing clouds.10 mph68%30.01 "HgN/A
4:30 am63 °FPassing clouds.12 mph64%30.01 "HgN/A
4:00 am63 °FPassing clouds.13 mph68%30.01 "HgN/A
3:30 am63 °FPassing clouds.12 mph68%30.01 "HgN/A
3:00 am63 °FPassing clouds.14 mph64%30.01 "HgN/A
2:30 am63 °FPassing clouds.12 mph68%30.04 "HgN/A
2:00 am63 °FPassing clouds.10 mph68%30.04 "HgN/A
1:30 am63 °FPassing clouds.12 mph68%30.04 "HgN/A
1:00 am63 °FPassing clouds.14 mph68%30.04 "HgN/A
12:30 am63 °FPassing clouds.10 mph68%30.04 "HgN/A
12:00 am63 °FPassing clouds.16 mph68%30.07 "HgN/A
11:30 pm
Mon, Feb 20
63 °FPassing clouds.13 mph68%30.07 "HgN/A
11:00 pm63 °FPassing clouds.17 mph68%30.07 "HgN/A
10:30 pm64 °FPassing clouds.17 mph64%30.07 "HgN/A
10:00 pm64 °FPassing clouds.14 mph64%30.07 "HgN/A
9:30 pm64 °FPassing clouds.16 mph64%30.07 "HgN/A
9:00 pm64 °FPassing clouds.17 mph64%30.07 "HgN/A
Weather by CustomWeather, © 2017

See weather overviewHow to use our weather pages